Time,TemperatureF,DewpointF,PressureIn,WindDirection,WindDirectionDegrees,WindSpeedMPH,WindSpeedGustMPH,Humidity,HourlyPrecipIn,Conditions,Clouds,dailyrainin,SoftwareType,DateUTC
2013-01-01 00:02:00,36.9,35.3,30.08,SE,146,0.0,0.0,94,0.00,,---,0.57,VWS V13.01,2013-01-01 06:02:00,
2013-01-01 00:07:00,36.9,35.3,30.08,SE,146,0.0,0.0,94,0.00,,---,0.00,VWS V13.01,2013-01-01 06:07:00,
2013-01-01 00:12:00,37.0,35.4,30.08,SE,146,0.0,0.0,94,0.00,,---,0.00,VWS V13.01,2013-01-01 06:12:00,
2013-01-01 00:17:00,37.0,35.4,30.08,SE,146,0.0,0.0,94,0.00,,---,0.00,VWS V13.01,2013-01-01 06:17:00,
2013-01-01 00:22:00,37.0,35.4,30.08,SE,146,0.0,0.0,94,0.00,,---,0.00,VWS V13.01,2013-01-01 06:22:00,
2013-01-01 00:27:00,37.0,35.4,30.08,SE,146,0.0,0.0,94,0.00,,---,0.00,VWS V13.01,2013-01-01 06:27:00,
2013-01-01 00:32:00,37.1,35.5,30.08,SE,146,0.0,0.0,94,0.00,,---,0.00,VWS V13.01,2013-01-01 06:32:00,
2013-01-01 00:37:00,37.1,35.5,30.07,SE,146,0.0,0.0,94,0.00,,---,0.00,VWS V13.01,2013-01-01 06:37:00,
2013-01-01 00:42:00,37.1,35.5,30.08,SE,146,0.0,0.0,94,0.00,,---,0.00,VWS V13.01,2013-01-01 06:42:00,
2013-01-01 00:47:00,37.1,35.5,30.07,SE,146,0.0,0.0,94,0.00,,---,0.00,VWS V13.01,2013-01-01 06:47:00,
2013-01-01 00:52:00,37.1,35.5,30.07,SE,146,0.0,0.0,94,0.00,,---,0.00,VWS V13.01,2013-01-01 06:52:00,
2013-01-01 00:57:00,37.1,35.5,30.07,SE,146,0.0,0.0,94,0.00,,---,0.00,VWS V13.01,2013-01-01 06:57:00,
2013-01-01 01:02:00,37.1,35.5,30.08,SE,146,0.0,0.0,94,0.00,,---,0.00,VWS V13.01,2013-01-01 07:02:00,
2013-01-01 01:07:00,37.1,35.5,30.08,SE,146,0.0,0.0,94,0.00,,---,0.00,VWS V13.01,2013-01-01 07:07:00,
2013-01-01 01:13:00,37.1,35.5,30.08,SE,146,0.0,0.0,94,0.00,,---,0.00,VWS V13.01,2013-01-01 07:13:00,
2013-01-01 01:18:00,37.2,35.6,30.08,SE,146,0.0,0.0,94,0.00,,---,0.00,VWS V13.01,2013-01-01 07:18:00,
2013-01-01 01:23:00,37.2,35.6,30.08,SE,146,0.0,0.0,94,0.00,,---,0.00,VWS V13.01,2013-01-01 07:23:00,
2013-01-01 01:28:00,37.2,35.6,30.07,SE,146,0.0,0.0,94,0.00,,---,0.00,VWS V13.01,2013-01-01 07:28:00,
2013-01-01 01:33:00,37.2,35.6,30.08,SE,146,0.0,0.0,94,0.00,,---,0.00,VWS V13.01,2013-01-01 07:33:00,
2013-01-01 01:38:00,37.2,35.6,30.08,SE,146,0.0,0.0,94,0.00,,---,0.00,VWS V13.01,2013-01-01 07:38:00,
2013-01-01 01:43:00,37.2,35.6,30.08,SE,146,0.0,0.0,94,0.00,,---,0.00,VWS V13.01,2013-01-01 07:43:00,
2013-01-01 01:48:00,37.2,35.6,30.08,SE,146,0.0,0.0,94,0.00,,---,0.00,VWS V13.01,2013-01-01 07:48:00,
2013-01-01 01:54:00,37.2,35.6,30.09,SE,146,0.0,0.0,94,0.00,,---,0.00,VWS V13.01,2013-01-01 07:54:00,
2013-01-01 01:59:00,37.2,35.6,30.08,SE,146,0.0,0.0,94,0.00,,---,0.00,VWS V13.01,2013-01-01 07:59:00,
2013-01-01 02:04:00,37.2,35.6,30.08,SE,146,0.0,0.0,94,0.00,,---,0.00,VWS V13.01,2013-01-01 08:04:00,
2013-01-01 02:09:00,37.2,35.6,30.08,SE,146,0.0,0.0,94,0.00,,---,0.00,VWS V13.01,2013-01-01 08:09:00,
2013-01-01 02:14:00,37.3,35.7,30.07,SE,146,0.0,0.0,94,0.00,,---,0.00,VWS V13.01,2013-01-01 08:14:00,
2013-01-01 02:19:00,37.2,35.6,30.08,SE,146,0.0,0.0,94,0.00,,---,0.00,VWS V13.01,2013-01-01 08:19:00,
2013-01-01 02:24:00,37.2,35.6,30.08,SE,146,0.0,0.0,94,0.00,,---,0.00,VWS V13.01,2013-01-01 08:24:00,
2013-01-01 02:29:00,37.2,35.6,30.08,SE,146,0.0,0.0,94,0.00,,---,0.00,VWS V13.01,2013-01-01 08:29:00,
2013-01-01 02:34:00,37.2,35.6,30.08,SE,146,0.0,0.0,94,0.00,,---,0.00,VWS V13.01,2013-01-01 08:34:00,
2013-01-01 02:39:00,37.2,35.6,30.08,SE,146,0.0,0.0,94,0.00,,---,0.00,VWS V13.01,2013-01-01 08:39:00,
2013-01-01 02:45:00,37.2,35.6,30.08,SE,146,0.0,0.0,94,0.00,,---,0.00,VWS V13.01,2013-01-01 08:45:00,
2013-01-01 02:50:00,37.3,35.7,30.08,SE,146,0.0,0.0,94,0.00,,---,0.00,VWS V13.01,2013-01-01 08:50:00,
2013-01-01 02:55:00,37.3,35.7,30.09,SE,146,0.0,0.0,94,0.00,,---,0.00,VWS V13.01,2013-01-01 08:55:00,
2013-01-01 03:00:00,37.3,35.7,30.08,SE,146,0.0,0.0,94,0.00,,---,0.00,VWS V13.01,2013-01-01 09:00:00,
2013-01-01 03:05:00,37.3,35.7,30.09,SE,146,0.0,0.0,94,0.00,,---,0.00,VWS V13.01,2013-01-01 09:05:00,
2013-01-01 03:10:00,37.3,35.7,30.08,SE,146,0.0,0.0,94,0.00,,---,0.00,VWS V13.01,2013-01-01 09:10:00,
2013-01-01 03:15:00,37.3,35.7,30.09,SE,146,0.0,0.0,94,0.00,,---,0.00,VWS V13.01,2013-01-01 09:15:00,
2013-01-01 03:20:00,37.3,35.7,30.08,SE,146,0.0,0.0,94,0.00,,---,0.00,VWS V13.01,2013-01-01 09:20:00,
2013-01-01 03:25:00,37.3,35.7,30.08,SE,146,0.0,0.0,94,0.00,,---,0.00,VWS V13.01,2013-01-01 09:25:00,
2013-01-01 03:31:00,37.4,35.8,30.07,SE,146,0.0,0.0,94,0.00,,---,0.00,VWS V13.01,2013-01-01 09:31:00,
2013-01-01 03:36:00,37.4,35.8,30.09,SE,146,0.0,0.0,94,0.00,,---,0.00,VWS V13.01,2013-01-01 09:36:00,
2013-01-01 03:41:00,37.4,35.8,30.09,SE,146,0.0,2.0,94,0.00,,---,0.00,VWS V13.01,2013-01-01 09:41:00,
2013-01-01 03:46:00,37.4,35.8,30.08,SE,146,0.0,2.0,94,0.00,,---,0.00,VWS V13.01,2013-01-01 09:46:00,
2013-01-01 03:51:00,37.4,35.8,30.08,SE,146,0.0,2.0,94,0.00,,---,0.00,VWS V13.01,2013-01-01 09:51:00,
2013-01-01 03:56:00,37.4,35.8,30.08,SE,146,0.0,2.0,94,0.00,,---,0.00,VWS V13.01,2013-01-01 09:56:00,
2013-01-01 04:01:00,37.4,35.8,30.08,SE,146,0.0,2.0,94,0.00,,---,0.00,VWS V13.01,2013-01-01 10:01:00,
2013-01-01 04:06:00,37.4,35.8,30.08,SE,146,0.0,0.0,94,0.00,,---,0.00,VWS V13.01,2013-01-01 10:06:00,
2013-01-01 04:11:00,37.5,35.9,30.08,SE,146,0.0,0.0,94,0.00,,---,0.00,VWS V13.01,2013-01-01 10:11:00,
2013-01-01 04:16:00,37.5,35.9,30.09,SE,146,0.0,0.0,94,0.00,,---,0.00,VWS V13.01,2013-01-01 10:16:00,
2013-01-01 04:21:00,37.5,35.9,30.09,SE,146,0.0,1.0,94,0.00,,---,0.00,VWS V13.01,2013-01-01 10:21:00,
2013-01-01 04:26:00,37.5,35.9,30.08,SE,146,0.0,1.0,94,0.00,,---,0.00,VWS V13.01,2013-01-01 10:26:00,
2013-01-01 04:32:00,37.5,35.9,30.08,SE,146,0.0,1.0,94,0.00,,---,0.00,VWS V13.01,2013-01-01 10:32:00,
2013-01-01 04:37:00,37.4,35.8,30.08,SE,146,0.0,0.0,94,0.00,,---,0.00,VWS V13.01,2013-01-01 10:37:00,
2013-01-01 04:42:00,37.4,35.8,30.08,SE,146,0.0,0.0,94,0.00,,---,0.00,VWS V13.01,2013-01-01 10:42:00,
2013-01-01 04:47:00,37.4,35.8,30.08,SE,146,0.0,0.0,94,0.00,,---,0.00,VWS V13.01,2013-01-01 10:47:00,
2013-01-01 04:52:00,37.4,35.8,30.09,SE,146,0.0,0.0,94,0.00,,---,0.00,VWS V13.01,2013-01-01 10:52:00,
2013-01-01 04:57:00,37.4,35.8,30.09,SE,146,0.0,0.0,94,0.00,,---,0.00,VWS V13.01,2013-01-01 10:57:00,
2013-01-01 05:02:00,37.4,35.8,30.09,SE,146,0.0,0.0,94,0.00,,---,0.00,VWS V13.01,2013-01-01 11:02:00,
2013-01-01 05:07:00,37.5,35.9,30.09,SE,146,0.0,0.0,94,0.00,,---,0.00,VWS V13.01,2013-01-01 11:07:00,
2013-01-01 05:12:00,37.4,35.8,30.10,SE,146,0.0,0.0,94,0.00,,---,0.00,VWS V13.01,2013-01-01 11:12:00,
2013-01-01 05:17:00,37.5,35.9,30.10,SE,146,0.0,3.0,94,0.00,,---,0.00,VWS V13.01,2013-01-01 11:17:00,
2013-01-01 05:22:00,37.5,35.9,30.10,SE,146,0.0,3.0,94,0.00,,---,0.00,VWS V13.01,2013-01-01 11:22:00,
2013-01-01 05:27:00,37.4,35.8,30.10,SE,146,0.0,3.0,94,0.00,,---,0.00,VWS V13.01,2013-01-01 11:27:00,
2013-01-01 05:32:00,37.4,35.8,30.09,SE,146,0.0,4.0,94,0.00,,---,0.00,VWS V13.01,2013-01-01 11:32:00,
2013-01-01 05:37:00,37.5,35.9,30.10,SE,146,1.0,3.0,94,0.00,,---,0.00,VWS V13.01,2013-01-01 11:37:00,
2013-01-01 05:42:00,37.5,35.9,30.09,SE,146,0.0,3.0,94,0.00,,---,0.00,VWS V13.01,2013-01-01 11:42:00,
2013-01-01 05:47:00,37.5,35.9,30.09,SE,146,0.0,3.0,94,0.00,,---,0.00,VWS V13.01,2013-01-01 11:47:00,
2013-01-01 05:53:00,37.5,35.9,30.10,SE,146,0.0,3.0,94,0.00,,---,0.00,VWS V13.01,2013-01-01 11:53:00,
2013-01-01 05:58:00,37.5,35.9,30.08,SE,146,1.0,3.0,94,0.00,,---,0.00,VWS V13.01,2013-01-01 11:58:00,
2013-01-01 06:03:00,37.5,35.9,30.09,SE,146,0.0,3.0,94,0.00,,---,0.00,VWS V13.01,2013-01-01 12:03:00,
2013-01-01 06:08:00,37.6,36.0,30.11,SE,146,0.0,0.0,94,0.00,,---,0.00,VWS V13.01,2013-01-01 12:08:00,
2013-01-01 06:13:00,37.6,36.3,30.10,SSE,148,3.0,4.0,95,0.00,,---,0.00,VWS V13.01,2013-01-01 12:13:00,
2013-01-01 06:18:00,37.6,36.3,30.10,SSE,149,0.0,4.0,95,0.00,,---,0.00,VWS V13.01,2013-01-01 12:18:00,
2013-01-01 06:23:00,37.7,36.4,30.10,NNW,330,0.0,4.0,95,0.00,,---,0.00,VWS V13.01,2013-01-01 12:23:00,
2013-01-01 06:28:00,37.7,36.4,30.11,NNW,329,0.0,4.0,95,0.00,,---,0.00,VWS V13.01,2013-01-01 12:28:00,
2013-01-01 06:33:00,37.7,36.4,30.12,NW,309,1.0,4.0,95,0.00,,---,0.00,VWS V13.01,2013-01-01 12:33:00,
2013-01-01 06:38:00,37.7,36.4,30.12,NW,309,2.0,3.0,95,0.00,,---,0.00,VWS V13.01,2013-01-01 12:38:00,
2013-01-01 06:43:00,37.7,36.4,30.12,NW,319,0.0,6.0,95,0.00,,---,0.00,VWS V13.01,2013-01-01 12:43:00,
2013-01-01 06:48:00,37.7,36.4,30.12,NW,323,2.0,10.0,95,0.00,,---,0.00,VWS V13.01,2013-01-01 12:48:00,
2013-01-01 06:53:00,37.7,36.4,30.12,NW,319,2.0,10.0,95,0.00,,---,0.00,VWS V13.01,2013-01-01 12:53:00,
2013-01-01 06:58:00,37.7,36.4,30.11,NW,314,0.0,10.0,95,0.00,,---,0.00,VWS V13.01,2013-01-01 12:58:00,
2013-01-01 07:03:00,37.6,36.3,30.11,NNW,338,2.0,10.0,95,0.00,,---,0.00,VWS V13.01,2013-01-01 13:03:00,
2013-01-01 07:09:00,37.6,36.3,30.10,NW,311,0.0,6.0,95,0.00,,---,0.00,VWS V13.01,2013-01-01 13:09:00,
2013-01-01 07:14:00,37.6,36.3,30.10,NW,311,0.0,6.0,95,0.00,,---,0.00,VWS V13.01,2013-01-01 13:14:00,
2013-01-01 07:19:00,37.5,36.2,30.10,NW,311,0.0,6.0,95,0.00,,---,0.00,VWS V13.01,2013-01-01 13:19:00,
2013-01-01 07:24:00,37.5,36.2,30.10,NNW,336,3.0,6.0,95,0.00,,---,0.00,VWS V13.01,2013-01-01 13:24:00,
2013-01-01 07:29:00,37.5,36.2,30.11,NNW,331,0.0,6.0,95,0.00,,---,0.00,VWS V13.01,2013-01-01 13:29:00,
2013-01-01 07:34:00,37.5,36.2,30.11,NW,317,2.0,6.0,95,0.00,,---,0.00,VWS V13.01,2013-01-01 13:34:00,
2013-01-01 07:39:00,37.4,36.1,30.13,NW,309,0.0,3.0,95,0.00,,---,0.00,VWS V13.01,2013-01-01 13:39:00,
2013-01-01 07:44:00,37.4,36.1,30.12,NNW,332,0.0,5.0,95,0.00,,---,0.00,VWS V13.01,2013-01-01 13:44:00,
2013-01-01 07:49:00,37.4,36.1,30.12,NNW,331,0.0,5.0,95,0.00,,---,0.00,VWS V13.01,2013-01-01 13:49:00,
2013-01-01 07:54:00,37.4,36.1,30.11,NNW,330,0.0,5.0,95,0.00,,---,0.00,VWS V13.01,2013-01-01 13:54:00,
2013-01-01 07:59:00,37.5,36.2,30.10,NNW,330,0.0,5.0,95,0.00,,---,0.00,VWS V13.01,2013-01-01 13:59:00,
2013-01-01 08:05:00,37.5,36.2,30.11,NNW,330,0.0,5.0,95,0.00,,---,0.00,VWS V13.01,2013-01-01 14:05:00,
2013-01-01 08:10:00,37.6,36.3,30.12,NNW,331,0.0,0.0,95,0.00,,---,0.00,VWS V13.01,2013-01-01 14:10:00,
2013-01-01 08:15:00,37.6,36.3,30.12,NNW,331,0.0,0.0,95,0.00,,---,0.00,VWS V13.01,2013-01-01 14:15:00,
2013-01-01 08:20:00,37.6,36.3,30.12,NNW,331,0.0,0.0,95,0.00,,---,0.00,VWS V13.01,2013-01-01 14:20:00,
2013-01-01 08:25:00,37.7,36.4,30.13,NNW,329,0.0,3.0,95,0.00,,---,0.00,VWS V13.01,2013-01-01 14:25:00,
2013-01-01 08:30:00,37.8,36.5,30.14,NNW,329,3.0,3.0,95,0.00,,---,0.00,VWS V13.01,2013-01-01 14:30:00,
2013-01-01 08:35:00,37.8,36.5,30.15,NNW,329,0.0,4.0,95,0.00,,---,0.00,VWS V13.01,2013-01-01 14:35:00,
2013-01-01 08:40:00,37.9,36.6,30.16,NNW,329,0.0,0.0,95,0.00,,---,0.00,VWS V13.01,2013-01-01 14:40:00,
2013-01-01 08:45:00,37.9,36.6,30.16,NNW,329,0.0,0.0,95,0.00,,---,0.00,VWS V13.01,2013-01-01 14:45:00,
2013-01-01 08:50:00,37.9,36.6,30.16,NNW,327,0.0,4.0,95,0.00,,---,0.00,VWS V13.01,2013-01-01 14:50:00,
2013-01-01 08:55:00,37.9,36.6,30.16,NW,325,0.0,4.0,95,0.00,,---,0.00,VWS V13.01,2013-01-01 14:55:00,
2013-01-01 09:00:00,37.9,36.6,30.16,NW,320,0.0,4.0,95,0.00,,---,0.00,VWS V13.01,2013-01-01 15:00:00,
2013-01-01 09:05:00,37.9,36.6,30.15,NW,320,0.0,4.0,95,0.00,,---,0.00,VWS V13.01,2013-01-01 15:05:00,
2013-01-01 09:10:00,37.8,36.5,30.15,NW,320,0.0,0.0,95,0.00,,---,0.00,VWS V13.01,2013-01-01 15:10:00,
2013-01-01 09:15:00,37.8,36.5,30.15,NW,319,0.0,0.0,95,0.00,,---,0.00,VWS V13.01,2013-01-01 15:15:00,
2013-01-01 09:20:00,37.8,36.5,30.16,NW,319,0.0,0.0,95,0.00,,---,0.00,VWS V13.01,2013-01-01 15:20:00,
2013-01-01 09:25:00,37.8,36.5,30.16,NW,319,0.0,0.0,95,0.00,,---,0.00,VWS V13.01,2013-01-01 15:25:00,
2013-01-01 09:30:00,37.9,36.6,30.17,NW,319,0.0,0.0,95,0.00,,---,0.00,VWS V13.01,2013-01-01 15:30:00,
2013-01-01 09:35:00,37.9,36.6,30.16,NW,320,0.0,0.0,95,0.00,,---,0.00,VWS V13.01,2013-01-01 15:35:00,
2013-01-01 09:40:00,37.9,36.6,30.18,NW,319,0.0,0.0,95,0.00,,---,0.00,VWS V13.01,2013-01-01 15:40:00,
2013-01-01 09:45:00,38.0,36.7,30.19,NW,320,0.0,0.0,95,0.00,,---,0.00,VWS V13.01,2013-01-01 15:45:00,
2013-01-01 09:50:00,38.0,36.7,30.18,NW,319,0.0,0.0,95,0.00,,---,0.00,VWS V13.01,2013-01-01 15:50:00,
2013-01-01 09:55:00,38.1,36.8,30.17,NW,320,0.0,0.0,95,0.00,,---,0.00,VWS V13.01,2013-01-01 15:55:00,
2013-01-01 10:01:00,38.2,36.9,30.17,NW,319,0.0,3.0,95,0.00,,---,0.00,VWS V13.01,2013-01-01 16:01:00,
2013-01-01 10:06:00,38.4,37.1,30.16,NW,319,0.0,0.0,95,0.00,,---,0.00,VWS V13.01,2013-01-01 16:06:00,
2013-01-01 10:11:00,38.5,37.2,30.18,NW,319,0.0,0.0,95,0.00,,---,0.00,VWS V13.01,2013-01-01 16:11:00,
2013-01-01 10:16:00,38.6,37.3,30.18,NW,319,0.0,0.0,95,0.00,,---,0.00,VWS V13.01,2013-01-01 16:16:00,
2013-01-01 10:21:00,38.7,37.4,30.19,NW,323,0.0,4.0,95,0.00,,---,0.00,VWS V13.01,2013-01-01 16:21:00,
2013-01-01 10:26:00,38.7,37.4,30.22,West,281,0.0,5.0,95,0.00,,---,0.00,VWS V13.01,2013-01-01 16:26:00,
2013-01-01 10:31:00,38.7,37.4,30.20,NW,306,0.0,7.0,95,0.00,,---,0.00,VWS V13.01,2013-01-01 16:31:00,
2013-01-01 10:36:00,38.7,37.4,30.19,NW,307,0.0,0.0,95,0.00,,---,0.00,VWS V13.01,2013-01-01 16:36:00,
2013-01-01 10:41:00,38.7,37.4,30.19,NW,307,0.0,0.0,95,0.00,,---,0.00,VWS V13.01,2013-01-01 16:41:00,
2013-01-01 10:46:00,38.8,37.5,30.20,NW,308,0.0,0.0,95,0.00,,---,0.00,VWS V13.01,2013-01-01 16:46:00,
2013-01-01 10:51:00,38.8,37.5,30.19,NW,308,0.0,0.0,95,0.00,,---,0.00,VWS V13.01,2013-01-01 16:51:00,
2013-01-01 10:56:00,38.9,37.6,30.19,NW,307,0.0,0.0,95,0.00,,---,0.00,VWS V13.01,2013-01-01 16:56:00,
2013-01-01 11:01:00,38.9,37.6,30.18,NW,308,0.0,0.0,95,0.00,,---,0.00,VWS V13.01,2013-01-01 17:01:00,
2013-01-01 11:06:00,38.9,37.6,30.18,NW,308,0.0,0.0,95,0.00,,---,0.00,VWS V13.01,2013-01-01 17:06:00,
2013-01-01 11:11:00,39.0,37.7,30.17,NW,308,0.0,2.0,95,0.00,,---,0.00,VWS V13.01,2013-01-01 17:11:00,
2013-01-01 11:16:00,39.0,37.7,30.18,NW,308,0.0,2.0,95,0.00,,---,0.00,VWS V13.01,2013-01-01 17:16:00,
2013-01-01 11:21:00,39.0,37.7,30.18,NW,308,0.0,2.0,95,0.00,,---,0.00,VWS V13.01,2013-01-01 17:21:00,
2013-01-01 11:26:00,39.1,37.8,30.18,NW,308,0.0,2.0,95,0.00,,---,0.00,VWS V13.01,2013-01-01 17:26:00,
2013-01-01 11:31:00,39.1,37.8,30.18,NW,308,0.0,2.0,95,0.00,,---,0.00,VWS V13.01,2013-01-01 17:31:00,
2013-01-01 11:36:00,39.1,37.8,30.18,NW,308,0.0,0.0,95,0.00,,---,0.00,VWS V13.01,2013-01-01 17:36:00,
2013-01-01 11:41:00,39.1,37.8,30.17,NW,308,1.0,2.0,95,0.00,,---,0.00,VWS V13.01,2013-01-01 17:41:00,
2013-01-01 11:46:00,39.2,37.9,30.16,North,5,0.0,3.0,95,0.00,,---,0.00,VWS V13.01,2013-01-01 17:46:00,
2013-01-01 11:51:00,39.3,38.0,30.15,ENE,59,0.0,4.0,95,0.00,,---,0.00,VWS V13.01,2013-01-01 17:51:00,
2013-01-01 11:56:00,39.3,38.0,30.16,ENE,59,0.0,4.0,95,0.00,,---,0.00,VWS V13.01,2013-01-01 17:56:00,
2013-01-01 12:01:00,39.4,38.1,30.17,ENE,59,3.0,4.0,95,0.00,,---,0.00,VWS V13.01,2013-01-01 18:01:00,
2013-01-01 12:06:00,39.3,38.0,30.16,ENE,59,2.0,3.0,95,0.00,,---,0.00,VWS V13.01,2013-01-01 18:06:00,
2013-01-01 12:11:00,39.3,38.0,30.15,ENE,59,0.0,3.0,95,0.00,,---,0.00,VWS V13.01,2013-01-01 18:11:00,
2013-01-01 12:16:00,39.3,38.0,30.16,ENE,59,0.0,3.0,95,0.00,,---,0.00,VWS V13.01,2013-01-01 18:16:00,
2013-01-01 12:21:00,39.3,38.0,30.16,ENE,59,0.0,3.0,95,0.00,,---,0.00,VWS V13.01,2013-01-01 18:21:00,
2013-01-01 12:26:00,39.3,38.0,30.16,ENE,59,0.0,3.0,95,0.00,,---,0.00,VWS V13.01,2013-01-01 18:26:00,
2013-01-01 12:32:00,39.4,38.1,30.16,ENE,59,0.0,3.0,95,0.00,,---,0.00,VWS V13.01,2013-01-01 18:32:00,
2013-01-01 12:37:00,39.4,38.1,30.15,ENE,59,0.0,0.0,95,0.00,,---,0.00,VWS V13.01,2013-01-01 18:37:00,
2013-01-01 12:42:00,39.4,38.1,30.14,ENE,59,0.0,2.0,95,0.00,,---,0.00,VWS V13.01,2013-01-01 18:42:00,
2013-01-01 12:47:00,39.5,38.2,30.16,ENE,59,0.0,2.0,95,0.00,,---,0.00,VWS V13.01,2013-01-01 18:47:00,
2013-01-01 12:52:00,39.5,38.2,30.15,ENE,59,0.0,2.0,95,0.00,,---,0.00,VWS V13.01,2013-01-01 18:52:00,
2013-01-01 12:57:00,39.5,38.2,30.15,ENE,59,0.0,2.0,95,0.00,,---,0.00,VWS V13.01,2013-01-01 18:57:00,
2013-01-01 13:02:00,39.4,38.1,30.15,ENE,59,0.0,2.0,95,0.00,,---,0.00,VWS V13.01,2013-01-01 19:02:00,
2013-01-01 13:07:00,39.5,38.2,30.15,ENE,59,0.0,0.0,95,0.00,,---,0.00,VWS V13.01,2013-01-01 19:07:00,
2013-01-01 13:12:00,39.5,38.2,30.15,ENE,59,0.0,0.0,95,0.00,,---,0.00,VWS V13.01,2013-01-01 19:12:00,
2013-01-01 13:17:00,39.5,38.2,30.15,ENE,59,0.0,0.0,95,0.00,,---,0.00,VWS V13.01,2013-01-01 19:17:00,
2013-01-01 13:22:00,39.5,38.2,30.15,ENE,59,0.0,0.0,95,0.00,,---,0.00,VWS V13.01,2013-01-01 19:22:00,
2013-01-01 13:27:00,39.5,38.2,30.15,ENE,59,0.0,0.0,95,0.00,,---,0.00,VWS V13.01,2013-01-01 19:27:00,
2013-01-01 13:32:00,39.6,38.3,30.15,ENE,59,0.0,0.0,95,0.00,,---,0.00,VWS V13.01,2013-01-01 19:32:00,
2013-01-01 13:37:00,39.6,38.3,30.16,ENE,59,0.0,0.0,95,0.00,,---,0.00,VWS V13.01,2013-01-01 19:37:00,
2013-01-01 13:42:00,39.6,38.3,30.15,ENE,59,0.0,0.0,95,0.00,,---,0.00,VWS V13.01,2013-01-01 19:42:00,
2013-01-01 13:47:00,39.6,38.3,30.16,ENE,59,0.0,2.0,95,0.00,,---,0.00,VWS V13.01,2013-01-01 19:47:00,
2013-01-01 13:52:00,39.6,38.3,30.16,ENE,59,0.0,2.0,95,0.00,,---,0.00,VWS V13.01,2013-01-01 19:52:00,
2013-01-01 13:57:00,39.6,38.3,30.16,ENE,59,0.0,2.0,95,0.00,,---,0.00,VWS V13.01,2013-01-01 19:57:00,
2013-01-01 14:02:00,39.6,38.3,30.16,ENE,59,0.0,2.0,95,0.00,,---,0.00,VWS V13.01,2013-01-01 20:02:00,
2013-01-01 14:07:00,39.5,38.2,30.16,ENE,59,0.0,0.0,95,0.00,,---,0.00,VWS V13.01,2013-01-01 20:07:00,
2013-01-01 14:13:00,39.4,38.1,30.15,ENE,59,0.0,0.0,95,0.00,,---,0.00,VWS V13.01,2013-01-01 20:13:00,
2013-01-01 14:18:00,39.4,38.1,30.15,ENE,59,0.0,0.0,95,0.00,,---,0.00,VWS V13.01,2013-01-01 20:18:00,
2013-01-01 14:23:00,39.4,38.1,30.15,ENE,59,0.0,3.0,95,0.00,,---,0.00,VWS V13.01,2013-01-01 20:23:00,
2013-01-01 14:28:00,39.3,38.0,30.15,ENE,59,0.0,3.0,95,0.00,,---,0.00,VWS V13.01,2013-01-01 20:28:00,
2013-01-01 14:33:00,39.3,38.0,30.16,ENE,59,0.0,3.0,95,0.00,,---,0.00,VWS V13.01,2013-01-01 20:33:00,
2013-01-01 14:38:00,39.3,38.0,30.15,ENE,59,0.0,0.0,95,0.00,,---,0.00,VWS V13.01,2013-01-01 20:38:00,
2013-01-01 14:43:00,39.3,38.0,30.16,ENE,59,0.0,0.0,95,0.00,,---,0.00,VWS V13.01,2013-01-01 20:43:00,
2013-01-01 14:48:00,39.3,38.0,30.16,ENE,59,0.0,0.0,95,0.00,,---,0.00,VWS V13.01,2013-01-01 20:48:00,
2013-01-01 14:53:00,39.3,38.0,30.16,ENE,59,0.0,0.0,95,0.00,,---,0.00,VWS V13.01,2013-01-01 20:53:00,
2013-01-01 14:58:00,39.4,38.1,30.16,ENE,59,0.0,2.0,95,0.00,,---,0.00,VWS V13.01,2013-01-01 20:58:00,
2013-01-01 15:03:00,39.4,38.1,30.17,ENE,59,0.0,2.0,95,0.00,,---,0.00,VWS V13.01,2013-01-01 21:03:00,
2013-01-01 15:08:00,39.5,38.2,30.16,NNW,341,0.0,2.0,95,0.00,,---,0.00,VWS V13.01,2013-01-01 21:08:00,
2013-01-01 15:13:00,39.5,38.2,30.16,NNW,338,3.0,4.0,95,0.00,,---,0.00,VWS V13.01,2013-01-01 21:13:00,
2013-01-01 15:18:00,39.5,38.2,30.17,NNW,333,2.0,5.0,95,0.00,,---,0.00,VWS V13.01,2013-01-01 21:18:00,
2013-01-01 15:23:00,39.6,38.3,30.17,NNW,331,0.0,5.0,95,0.00,,---,0.00,VWS V13.01,2013-01-01 21:23:00,
2013-01-01 15:28:00,39.6,38.3,30.17,NNW,331,0.0,5.0,95,0.01,,---,0.01,VWS V13.01,2013-01-01 21:28:00,
2013-01-01 15:33:00,39.6,38.3,30.17,NNW,331,0.0,5.0,95,0.01,,---,0.01,VWS V13.01,2013-01-01 21:33:00,
2013-01-01 15:38:00,39.6,38.3,30.17,NNW,329,0.0,2.0,95,0.01,,---,0.01,VWS V13.01,2013-01-01 21:38:00,
2013-01-01 15:43:00,39.6,38.3,30.17,NNW,329,0.0,2.0,95,0.01,,---,0.01,VWS V13.01,2013-01-01 21:43:00,
2013-01-01 15:48:00,39.6,38.3,30.17,NNW,329,0.0,2.0,95,0.01,,---,0.01,VWS V13.01,2013-01-01 21:48:00,
2013-01-01 15:53:00,39.6,38.3,30.17,NNW,329,0.0,2.0,95,0.01,,---,0.01,VWS V13.01,2013-01-01 21:53:00,
2013-01-01 15:59:00,39.6,38.3,30.18,NNW,329,0.0,2.0,95,0.01,,---,0.01,VWS V13.01,2013-01-01 21:59:00,
2013-01-01 16:04:00,39.6,38.3,30.18,NNW,329,0.0,2.0,95,0.01,,---,0.01,VWS V13.01,2013-01-01 22:04:00,
2013-01-01 16:09:00,39.5,38.2,30.17,NNW,329,0.0,0.0,95,0.01,,---,0.01,VWS V13.01,2013-01-01 22:09:00,
2013-01-01 16:14:00,39.5,38.2,30.17,NNW,329,0.0,0.0,95,0.01,,---,0.01,VWS V13.01,2013-01-01 22:14:00,
2013-01-01 16:19:00,39.5,38.2,30.17,NNW,330,0.0,0.0,95,0.01,,---,0.01,VWS V13.01,2013-01-01 22:19:00,
2013-01-01 16:24:00,39.5,38.2,30.18,NE,46,0.0,4.0,95,0.01,,---,0.01,VWS V13.01,2013-01-01 22:24:00,
2013-01-01 16:29:00,39.4,38.1,30.18,NE,45,2.0,4.0,95,0.01,,---,0.01,VWS V13.01,2013-01-01 22:29:00,
2013-01-01 16:34:00,39.3,38.0,30.18,NE,40,0.0,6.0,95,0.01,,---,0.01,VWS V13.01,2013-01-01 22:34:00,
2013-01-01 16:39:00,39.2,37.9,30.18,NE,35,3.0,5.0,95,0.00,,---,0.01,VWS V13.01,2013-01-01 22:39:00,
2013-01-01 16:44:00,39.2,37.9,30.18,NE,37,2.0,6.0,95,0.00,,---,0.01,VWS V13.01,2013-01-01 22:44:00,
2013-01-01 16:49:00,39.1,37.8,30.18,NE,37,0.0,6.0,95,0.00,,---,0.01,VWS V13.01,2013-01-01 22:49:00,
2013-01-01 16:54:00,39.1,37.8,30.19,NE,51,3.0,6.0,95,0.00,,---,0.01,VWS V13.01,2013-01-01 22:54:00,
2013-01-01 16:59:00,39.0,37.7,30.19,NE,50,0.0,6.0,95,0.00,,---,0.01,VWS V13.01,2013-01-01 22:59:00,
2013-01-01 17:04:00,38.9,37.6,30.19,NE,40,0.0,6.0,95,0.00,,---,0.01,VWS V13.01,2013-01-01 23:04:00,
2013-01-01 17:09:00,38.9,37.6,30.19,NE,40,0.0,3.0,95,0.00,,---,0.01,VWS V13.01,2013-01-01 23:09:00,
2013-01-01 17:14:00,38.9,37.6,30.19,NE,40,0.0,3.0,95,0.01,,---,0.02,VWS V13.01,2013-01-01 23:14:00,
2013-01-01 17:19:00,38.8,37.5,30.19,NE,40,0.0,3.0,95,0.01,,---,0.02,VWS V13.01,2013-01-01 23:19:00,
2013-01-01 17:24:00,38.8,37.5,30.19,NE,40,0.0,3.0,95,0.01,,---,0.02,VWS V13.01,2013-01-01 23:24:00,
2013-01-01 17:29:00,38.8,37.5,30.19,NE,48,3.0,4.0,95,0.01,,---,0.02,VWS V13.01,2013-01-01 23:29:00,
2013-01-01 17:34:00,38.7,37.4,30.20,NE,54,0.0,7.0,95,0.01,,---,0.02,VWS V13.01,2013-01-01 23:34:00,
2013-01-01 17:39:00,38.6,37.3,30.20,NE,51,2.0,6.0,95,0.01,,---,0.02,VWS V13.01,2013-01-01 23:39:00,
2013-01-01 17:44:00,38.5,37.2,30.20,NE,51,0.0,6.0,95,0.01,,---,0.02,VWS V13.01,2013-01-01 23:44:00,
2013-01-01 17:49:00,38.5,37.2,30.20,NE,51,0.0,6.0,95,0.01,,---,0.02,VWS V13.01,2013-01-01 23:49:00,
2013-01-01 17:54:00,38.5,37.2,30.21,NE,51,0.0,6.0,95,0.01,,---,0.02,VWS V13.01,2013-01-01 23:54:00,
2013-01-01 17:59:00,38.5,37.2,30.20,NE,51,0.0,6.0,95,0.01,,---,0.02,VWS V13.01,2013-01-01 23:59:00,
2013-01-01 18:04:00,38.5,37.2,30.20,NE,51,0.0,6.0,95,0.01,,---,0.02,VWS V13.01,2013-01-02 00:04:00,
2013-01-01 18:09:00,38.4,37.1,30.21,NE,51,0.0,1.0,95,0.01,,---,0.02,VWS V13.01,2013-01-02 00:09:00,
2013-01-01 18:14:00,38.4,37.1,30.21,NE,51,2.0,5.0,95,0.01,,---,0.02,VWS V13.01,2013-01-02 00:14:00,
2013-01-01 18:19:00,38.3,37.0,30.20,NE,51,0.0,5.0,95,0.01,,---,0.02,VWS V13.01,2013-01-02 00:19:00,
2013-01-01 18:24:00,38.3,37.0,30.20,NE,50,2.0,6.0,95,0.01,,---,0.02,VWS V13.01,2013-01-02 00:24:00,
2013-01-01 18:29:00,38.2,36.9,30.21,NE,50,4.0,6.0,95,0.01,,---,0.02,VWS V13.01,2013-01-02 00:29:00,
2013-01-01 18:34:00,38.1,36.8,30.21,NE,50,0.0,6.0,95,0.01,,---,0.02,VWS V13.01,2013-01-02 00:34:00,
2013-01-01 18:39:00,37.9,36.6,30.21,NE,46,7.0,9.0,95,0.00,,---,0.02,VWS V13.01,2013-01-02 00:39:00,
2013-01-01 18:44:00,37.7,36.4,30.21,NE,48,5.0,9.0,95,0.00,,---,0.02,VWS V13.01,2013-01-02 00:44:00,
2013-01-01 18:49:00,37.6,36.3,30.21,NE,45,3.0,9.0,95,0.00,,---,0.02,VWS V13.01,2013-01-02 00:49:00,
2013-01-01 18:54:00,37.5,36.2,30.22,NE,38,2.0,9.0,95,0.00,,---,0.02,VWS V13.01,2013-01-02 00:54:00,
2013-01-01 18:59:00,37.3,36.0,30.22,NE,34,5.0,9.0,95,0.00,,---,0.02,VWS V13.01,2013-01-02 00:59:00,
2013-01-01 19:04:00,37.2,35.9,30.22,NE,38,5.0,9.0,95,0.00,,---,0.02,VWS V13.01,2013-01-02 01:04:00,
2013-01-01 19:09:00,37.0,35.7,30.22,NE,52,3.0,8.0,95,0.00,,---,0.02,VWS V13.01,2013-01-02 01:09:00,
2013-01-01 19:14:00,36.8,35.5,30.22,NE,38,3.0,8.0,95,0.00,,---,0.02,VWS V13.01,2013-01-02 01:14:00,
2013-01-01 19:19:00,36.7,35.4,30.22,NE,48,3.0,9.0,95,0.00,,---,0.02,VWS V13.01,2013-01-02 01:19:00,
2013-01-01 19:24:00,36.5,35.2,30.22,ENE,57,5.0,9.0,95,0.00,,---,0.02,VWS V13.01,2013-01-02 01:24:00,
2013-01-01 19:29:00,36.4,35.1,30.22,NE,37,5.0,9.0,95,0.00,,---,0.02,VWS V13.01,2013-01-02 01:29:00,
2013-01-01 19:35:00,36.2,34.9,30.22,NE,44,4.0,9.0,95,0.00,,---,0.02,VWS V13.01,2013-01-02 01:35:00,
2013-01-01 19:40:00,36.1,34.8,30.22,NE,36,4.0,8.0,95,0.00,,---,0.02,VWS V13.01,2013-01-02 01:40:00,
2013-01-01 19:45:00,36.0,34.7,30.22,NE,36,3.0,8.0,95,0.00,,---,0.02,VWS V13.01,2013-01-02 01:45:00,
2013-01-01 19:50:00,36.0,34.7,30.23,NNE,33,0.0,8.0,95,0.00,,---,0.02,VWS V13.01,2013-01-02 01:50:00,
2013-01-01 19:55:00,35.9,34.6,30.23,NE,34,0.0,8.0,95,0.00,,---,0.02,VWS V13.01,2013-01-02 01:55:00,
2013-01-01 20:00:00,35.9,34.6,30.23,NE,34,0.0,8.0,95,0.00,,---,0.02,VWS V13.01,2013-01-02 02:00:00,
2013-01-01 20:05:00,35.8,34.2,30.23,NE,34,0.0,8.0,94,0.00,,---,0.02,VWS V13.01,2013-01-02 02:05:00,
2013-01-01 20:10:00,35.8,34.2,30.23,NE,34,0.0,0.0,94,0.00,,---,0.02,VWS V13.01,2013-01-02 02:10:00,
2013-01-01 20:15:00,35.8,34.2,30.24,NE,34,0.0,0.0,94,0.00,,---,0.02,VWS V13.01,2013-01-02 02:15:00,
2013-01-01 20:20:00,35.8,34.2,30.24,NE,34,1.0,5.0,94,0.00,,---,0.02,VWS V13.01,2013-01-02 02:20:00,
2013-01-01 20:25:00,35.8,34.2,30.24,NE,34,3.0,5.0,94,0.00,,---,0.02,VWS V13.01,2013-01-02 02:25:00,
2013-01-01 20:30:00,35.8,34.2,30.24,NE,34,2.0,5.0,94,0.00,,---,0.02,VWS V13.01,2013-01-02 02:30:00,
2013-01-01 20:35:00,35.7,34.2,30.24,NE,34,2.0,5.0,94,0.00,,---,0.02,VWS V13.01,2013-01-02 02:35:00,
2013-01-01 20:40:00,35.7,34.2,30.24,NE,34,0.0,3.0,94,0.00,,---,0.02,VWS V13.01,2013-01-02 02:40:00,
2013-01-01 20:45:00,35.7,34.2,30.24,NE,34,0.0,4.0,94,0.00,,---,0.02,VWS V13.01,2013-01-02 02:45:00,
2013-01-01 20:50:00,35.7,34.2,30.25,NNE,32,3.0,7.0,94,0.00,,---,0.02,VWS V13.01,2013-01-02 02:50:00,
2013-01-01 20:55:00,35.6,34.0,30.25,NNE,32,0.0,7.0,94,0.00,,---,0.02,VWS V13.01,2013-01-02 02:55:00,
2013-01-01 21:00:00,35.6,34.0,30.25,NNE,32,0.0,7.0,94,0.00,,---,0.02,VWS V13.01,2013-01-02 03:00:00,
2013-01-01 21:05:00,35.6,34.0,30.24,NNE,32,2.0,7.0,94,0.00,,---,0.02,VWS V13.01,2013-01-02 03:05:00,
2013-01-01 21:10:00,35.6,34.0,30.24,NNE,32,3.0,4.0,94,0.00,,---,0.02,VWS V13.01,2013-01-02 03:10:00,
2013-01-01 21:15:00,35.6,34.0,30.23,NNE,32,2.0,4.0,94,0.00,,---,0.02,VWS V13.01,2013-01-02 03:15:00,
2013-01-01 21:20:00,35.6,34.0,30.23,NNE,32,3.0,4.0,94,0.00,,---,0.02,VWS V13.01,2013-01-02 03:20:00,
2013-01-01 21:25:00,35.7,34.2,30.23,NNE,32,3.0,5.0,94,0.00,,---,0.02,VWS V13.01,2013-01-02 03:25:00,
2013-01-01 21:30:00,35.6,34.0,30.23,NNE,32,3.0,6.0,94,0.00,,---,0.02,VWS V13.01,2013-01-02 03:30:00,
2013-01-01 21:35:00,35.6,34.0,30.23,NNE,32,3.0,6.0,94,0.00,,---,0.02,VWS V13.01,2013-01-02 03:35:00,
2013-01-01 21:40:00,35.6,34.0,30.24,NNE,32,0.0,4.0,94,0.00,,---,0.02,VWS V13.01,2013-01-02 03:40:00,
2013-01-01 21:45:00,35.6,34.0,30.23,NNE,32,2.0,4.0,94,0.00,,---,0.02,VWS V13.01,2013-01-02 03:45:00,
2013-01-01 21:50:00,35.6,34.0,30.23,NNE,32,2.0,4.0,94,0.00,,---,0.02,VWS V13.01,2013-01-02 03:50:00,
2013-01-01 21:55:00,35.5,34.0,30.23,NNE,32,2.0,4.0,94,0.00,,---,0.02,VWS V13.01,2013-01-02 03:55:00,
2013-01-01 22:00:00,35.5,34.0,30.24,NNE,32,2.0,4.0,94,0.00,,---,0.02,VWS V13.01,2013-01-02 04:00:00,
2013-01-01 22:05:00,35.4,33.8,30.24,NNE,32,3.0,4.0,94,0.00,,---,0.02,VWS V13.01,2013-01-02 04:05:00,
2013-01-01 22:11:00,35.3,33.8,30.24,NNE,32,0.0,5.0,94,0.00,,---,0.02,VWS V13.01,2013-01-02 04:11:00,
2013-01-01 22:16:00,35.3,33.8,30.24,NNE,32,0.0,5.0,94,0.00,,---,0.02,VWS V13.01,2013-01-02 04:16:00,
2013-01-01 22:21:00,35.2,33.7,30.25,NNE,32,0.0,5.0,94,0.00,,---,0.02,VWS V13.01,2013-01-02 04:21:00,
2013-01-01 22:26:00,35.2,33.7,30.24,NNE,32,0.0,5.0,94,0.00,,---,0.02,VWS V13.01,2013-01-02 04:26:00,
2013-01-01 22:31:00,35.2,33.7,30.25,NNE,32,0.0,5.0,94,0.00,,---,0.02,VWS V13.01,2013-01-02 04:31:00,
2013-01-01 22:36:00,35.2,33.7,30.25,NNE,32,0.0,0.0,94,0.00,,---,0.02,VWS V13.01,2013-01-02 04:36:00,
2013-01-01 22:41:00,35.2,33.7,30.25,NNE,32,3.0,4.0,94,0.00,,---,0.02,VWS V13.01,2013-01-02 04:41:00,
2013-01-01 22:46:00,35.1,33.5,30.25,NNE,32,2.0,5.0,94,0.00,,---,0.02,VWS V13.01,2013-01-02 04:46:00,
2013-01-01 22:51:00,35.0,33.5,30.25,NNE,17,5.0,6.0,94,0.00,,---,0.02,VWS V13.01,2013-01-02 04:51:00,
2013-01-01 22:56:00,34.9,33.3,30.24,NNE,28,1.0,7.0,94,0.00,,---,0.02,VWS V13.01,2013-01-02 04:56:00,
2013-01-01 23:00:00,34.8,33.2,30.24,NNE,28,1.0,7.0,94,0.00,,---,0.02,VWS V13.01,2013-01-02 05:00:00,
2013-01-01 23:01:00,34.8,33.2,30.25,NNE,28,1.0,7.0,94,0.00,,---,0.02,VWS V13.01,2013-01-02 05:01:00,
2013-01-01 23:03:00,34.8,33.2,30.25,NNE,28,2.0,7.0,94,0.00,,---,0.02,VWS V13.01,2013-01-02 05:03:00,
2013-01-01 23:08:00,34.7,33.2,30.24,NNE,28,2.0,3.0,94,0.00,,---,0.02,VWS V13.01,2013-01-02 05:08:00,
2013-01-01 23:13:00,34.6,33.0,30.24,NNE,28,2.0,3.0,94,0.00,,---,0.02,VWS V13.01,2013-01-02 05:13:00,
2013-01-01 23:18:00,34.6,33.0,30.24,NNE,28,2.0,3.0,94,0.00,,---,0.02,VWS V13.01,2013-01-02 05:18:00,
2013-01-01 23:23:00,34.4,32.9,30.25,NNE,28,0.0,5.0,94,0.00,,---,0.02,VWS V13.01,2013-01-02 05:23:00,
2013-01-01 23:28:00,34.4,32.9,30.24,ENE,77,3.0,5.0,94,0.00,,---,0.02,VWS V13.01,2013-01-02 05:28:00,
2013-01-01 23:33:00,34.4,32.9,30.24,NE,53,5.0,6.0,94,0.00,,---,0.02,VWS V13.01,2013-01-02 05:33:00,
2013-01-01 23:38:00,34.4,32.9,30.25,NE,42,4.0,5.0,94,0.00,,---,0.02,VWS V13.01,2013-01-02 05:38:00,
2013-01-01 23:43:00,34.3,32.8,30.24,NE,42,3.0,5.0,94,0.00,,---,0.02,VWS V13.01,2013-01-02 05:43:00,
2013-01-01 23:48:00,34.2,32.7,30.25,NE,41,4.0,5.0,94,0.00,,---,0.02,VWS V13.01,2013-01-02 05:48:00,
2013-01-01 23:53:00,34.1,32.6,30.25,NE,41,0.0,5.0,94,0.00,,---,0.02,VWS V13.01,2013-01-02 05:53:00,
2013-01-01 23:58:00,34.1,32.6,30.25,NE,42,2.0,5.0,94,0.00,,---,0.02,VWS V13.01,2013-01-02 05:58:00,